South St. Paul, MN

6:41 AM CDT on March 28, 2017 (GMT -0500)
South Saint Paul Municipal-Fleming

Weather History for KSGS - October, 2012

Change the Weather History Date:

Tuesday, October 23, 2012

  Actual Average (KSTP) Record (KSTP)
Temperature  
Mean Temperature 59 °F -  
Max Temperature 62 °F 53 °F 68 °F (1998)
Min Temperature 56 °F 36 °F 0 °F (2012)
Degree Days  
Heating Degree Days 6    
Growing Degree Days 9 (Base 50)    
Moisture  
Dew Point 57 °F    
Average Humidity 91    
Maximum Humidity 96    
Minimum Humidity 81    
Precipitation  
Precipitation 0.03 in - - ()
Sea Level Pressure  
Sea Level Pressure 29.76 in    
Wind  
Wind Speed 5 mph (SE)    
Max Wind Speed 10 mph    
Max Gust Speed -    
Visibility 4 miles    
Events Rain , Thunderstorm    
Averages and records for this station are not official NWS values.
T = Trace of Precipitation, MM = Missing Value Source: NWS Daily Summary

Daily Weather History Graph

Daily Weather History Graph

Search for Another Location

Airport or City:

Trip Planner

Search our weather history database for the weather conditions in past years. The results will help you decide how hot, cold, wet, or windy it might be!

Date:

Astronomy

Oct. 23, 2012 Rise Set
Actual Time 7:38 AM CDT 6:13 PM CDT
Civil Twilight 7:08 AM CDT 6:43 PM CDT
Nautical Twilight 6:34 AM CDT 7:17 PM CDT
Astronomical Twilight 6:00 AM CDT 7:51 PM CDT
Moon 3:10 PM CDT (10/23) 1:16 AM CDT (10/23)
Length of Visible Light 11h 34m
Length of Day
10h 34m
Waxing Gibbous, 67% of the Moon is Illuminated
Oct 23
Waxing Gibbous
Oct 29
Full
Nov 6
Last Quarter
Nov 13
New
Nov 20
First Quarter

Hourly Weather History & Observations

Time (CDT) Temp. Dew Point Humidity Pressure Visibility Wind Dir Wind Speed Gust Speed Precip Events Conditions
12:12 AM 57.4 °F 51.6 °F 81% 29.86 in 10.0 mi East 5.8 mph - N/A   Overcast
12:32 AM 57.4 °F 51.8 °F 82% 29.85 in 10.0 mi ENE 6.9 mph - N/A   Overcast
12:52 AM 57.4 °F 51.4 °F 81% 29.86 in 10.0 mi East 6.9 mph - N/A   Overcast
1:12 AM 57.7 °F 51.8 °F 81% 29.86 in 10.0 mi Calm Calm - N/A   Overcast
1:32 AM 57.9 °F 52.0 °F 81% 29.85 in 10.0 mi East 9.2 mph - N/A   Overcast
1:52 AM 57.9 °F 52.5 °F 82% 29.84 in 7.0 mi East 8.1 mph - N/A   Overcast
2:12 AM 57.9 °F 52.7 °F 83% 29.84 in 7.0 mi East 5.8 mph - N/A   Overcast
2:52 AM 57.7 °F 52.7 °F 83% 29.83 in 7.0 mi East 9.2 mph - N/A   Overcast
3:12 AM 58.1 °F 52.9 °F 83% 29.82 in 7.0 mi East 6.9 mph - N/A   Overcast
3:32 AM 57.2 °F 53.4 °F 87% 29.81 in 7.0 mi East 5.8 mph - N/A   Overcast
3:52 AM 57.2 °F 53.2 °F 87% 29.80 in 7.0 mi East 5.8 mph - N/A   Overcast
4:12 AM 57.4 °F 53.2 °F 86% 29.79 in 7.0 mi East 9.2 mph - N/A   Overcast
4:32 AM 57.2 °F 53.6 °F 88% 29.79 in 4.0 mi ESE 4.6 mph - 0.03 in Rain Light Rain
4:52 AM 56.7 °F 53.6 °F 89% 29.79 in 7.0 mi SE 8.1 mph - 0.03 in   Overcast
5:12 AM 57.2 °F 53.8 °F 88% 29.79 in 7.0 mi ESE 8.1 mph - N/A   Overcast
5:32 AM 56.8 °F 53.6 °F 89% 29.78 in 5.0 mi ESE 5.8 mph - N/A   Overcast
5:52 AM 56.8 °F 53.6 °F 89% 29.78 in 5.0 mi ESE 8.1 mph - N/A   Overcast
6:32 AM 56.7 °F 53.6 °F 89% 29.78 in 5.0 mi ESE 8.1 mph - N/A Thunderstorm Overcast
7:12 AM 56.7 °F 53.8 °F 90% 29.78 in 5.0 mi ESE 5.8 mph - N/A   Overcast
7:32 AM 56.5 °F 53.8 °F 91% 29.78 in 3.0 mi SE 6.9 mph - N/A   Overcast
7:52 AM 56.7 °F 54.5 °F 92% 29.78 in 4.0 mi ESE 5.8 mph - N/A   Overcast
8:12 AM 56.7 °F 54.1 °F 91% 29.78 in 5.0 mi East 6.9 mph - N/A   Overcast
8:32 AM 56.8 °F 54.5 °F 92% 29.79 in 5.0 mi ESE 6.9 mph - N/A   Overcast
8:52 AM 57.0 °F 54.5 °F 91% 29.78 in 5.0 mi ESE 4.6 mph - N/A   Overcast
9:12 AM 57.2 °F 54.7 °F 91% 29.78 in 4.0 mi East 4.6 mph - N/A   Overcast
9:32 AM 57.4 °F 55.0 °F 92% 29.78 in 4.0 mi ESE 8.1 mph - N/A   Overcast
9:52 AM 57.7 °F 55.4 °F 92% 29.77 in 4.0 mi SE 5.8 mph - N/A   Overcast
10:12 AM 58.1 °F 55.4 °F 91% 29.77 in 4.0 mi Calm Calm - N/A   Overcast
10:52 AM 59.0 °F 56.3 °F 91% 29.76 in 3.0 mi SE 10.4 mph - N/A   Overcast
11:12 AM 59.2 °F 56.5 °F 91% 29.75 in 3.0 mi SE 8.1 mph - N/A   Overcast
11:32 AM 59.5 °F 56.7 °F 90% 29.75 in 3.0 mi SSE 9.2 mph - N/A   Overcast
11:52 AM 59.9 °F 56.8 °F 90% 29.75 in 3.0 mi SSE 9.2 mph - N/A   Overcast
12:12 PM 60.1 °F 57.2 °F 90% 29.74 in 4.0 mi SSE 6.9 mph - N/A   Mostly Cloudy
12:32 PM 60.3 °F 57.2 °F 90% 29.74 in 4.0 mi SE 9.2 mph - N/A   Scattered Clouds
12:52 PM 60.4 °F 57.2 °F 89% 29.74 in 4.0 mi SSE 5.8 mph - N/A   Scattered Clouds
1:32 PM 61.3 °F 57.7 °F 88% 29.72 in 4.0 mi SSE 5.8 mph - N/A   Clear
1:52 PM 62.1 °F 58.3 °F 87% 29.71 in 3.0 mi SSE 6.9 mph - N/A   Mist
2:12 PM 61.5 °F 59.0 °F 91% 29.70 in 1.5 mi SE 6.9 mph - N/A   Mostly Cloudy
2:32 PM 61.5 °F 59.4 °F 93% 29.70 in 1.8 mi SE 4.6 mph - N/A   Scattered Clouds
2:52 PM 61.3 °F 59.4 °F 93% 29.70 in 2.0 mi SE 5.8 mph - N/A   Mist
3:12 PM 61.5 °F 59.5 °F 93% 29.69 in 2.0 mi SE 3.5 mph - N/A   Overcast
3:32 PM 61.7 °F 59.9 °F 94% 29.69 in 1.8 mi SSE 4.6 mph - N/A   Mostly Cloudy
3:52 PM 61.3 °F 59.9 °F 95% 29.70 in 1.2 mi SE 4.6 mph - N/A   Mostly Cloudy
4:12 PM 61.2 °F 59.9 °F 96% 29.70 in 1.2 mi SE 4.6 mph - N/A   Mist
4:32 PM 61.2 °F 59.9 °F 96% 29.70 in 1.5 mi SE 3.5 mph - N/A   Scattered Clouds
4:52 PM 61.2 °F 59.9 °F 96% 29.70 in 1.8 mi SSE 3.5 mph - N/A   Mostly Cloudy
5:12 PM 61.3 °F 60.1 °F 96% 29.71 in 1.8 mi Calm Calm - N/A   Overcast
5:32 PM 61.3 °F 60.1 °F 96% 29.71 in 1.8 mi SSE 3.5 mph - N/A   Overcast
6:12 PM 61.3 °F 60.1 °F 96% 29.72 in 2.5 mi Calm Calm - N/A   Overcast
6:32 PM 61.5 °F 60.3 °F 96% 29.73 in 3.0 mi Calm Calm - N/A   Overcast
6:52 PM 61.3 °F 60.1 °F 96% 29.73 in 2.5 mi Calm Calm - N/A   Overcast
7:12 PM 61.3 °F 60.1 °F 96% 29.74 in 3.0 mi Calm Calm - N/A   Overcast
7:32 PM 60.8 °F 59.5 °F 96% 29.75 in 1.8 mi Calm Calm - N/A   Overcast
7:52 PM 61.2 °F 59.9 °F 96% 29.75 in 2.0 mi Calm Calm - N/A   Overcast
8:12 PM 61.0 °F 59.7 °F 96% 29.75 in 2.5 mi SE 3.5 mph - N/A   Overcast
8:32 PM 61.7 °F 60.4 °F 96% 29.75 in 3.0 mi Calm Calm - N/A   Overcast
8:52 PM 61.3 °F 60.1 °F 96% 29.75 in 3.0 mi Calm Calm - N/A   Overcast
9:12 PM 61.3 °F 60.1 °F 96% 29.75 in 4.0 mi SSE 3.5 mph - N/A   Overcast
9:32 PM 61.3 °F 59.9 °F 95% 29.75 in 4.0 mi Calm Calm - N/A   Mostly Cloudy
9:52 PM 60.8 °F 59.2 °F 94% 29.76 in 3.0 mi NNW 4.6 mph - N/A   Overcast
10:12 PM 60.8 °F 59.4 °F 95% 29.78 in 3.0 mi Calm Calm - N/A   Overcast
10:32 PM 61.2 °F 59.9 °F 96% 29.78 in 3.0 mi Calm Calm - N/A   Overcast
10:52 PM 60.8 °F 59.4 °F 95% 29.78 in 2.5 mi Calm Calm - N/A   Overcast
11:32 PM 61.0 °F 59.9 °F 96% 29.79 in 3.0 mi Calm Calm - N/A   Overcast
11:52 PM 61.0 °F 59.2 °F 94% 29.79 in 5.0 mi WNW 4.6 mph - N/A   Mostly Cloudy